Location: *
(60.1759°S, 155.0663°W)
Time: 00:02:12
(UTC+00:00)

Okean 1-7 - Pass Details

Date: 17 September 2019
Orbit: 590 x 620 km, 82.5° (Epoch: 22 October)

Event Time Altitude Azimuth Distance (km) Brightness Sun altitude
Rises 13:44:49 0° 194° (SSW) 2,897 6.7 -19.7°
Reaches altitude 10° 13:47:03 10° 192° (SSW) 1,991 5.9 -19.4°
Maximum altitude 13:51:28 76° 105° (ESE) 644 3.2 -18.9°
Drops below altitude 10° 13:55:53 10° 19° (NNE) 1,986 5.5 -18.5°
Sets 13:58:06 0° 17° (NNE) 2,889 6.4 -18.2°
